Location: Township of Marena
(38.1747°N, 99.6798°W)
Time: 05:13:07
(UTC+00:00)

CZ-2C R/B - Pass Details

Date: 26 October 2020
Orbit: 703 x 909 km, 98.1° (Epoch: 25 November)

Event Time Altitude Azimuth Distance (km) Brightness Sun altitude
Rises 00:18:00 0° 130° (SE) 3,526 6.0 -6.8°
Reaches altitude 10° 00:20:51 10° 118° (ESE) 2,586 5.3 -7.3°
Maximum altitude 00:25:22 24° 66° (ENE) 1,770 4.3 -8.2°
Drops below altitude 10° 00:29:49 10° 15° (NNE) 2,552 5.5 -9.1°
Sets 00:32:36 0° 2° (N) 3,469 6.3 -9.6°
